sat.trackr.live / text

‹ back to catalog

STARLINK-3930

NORAD 52568 · 2022-051AM

PAYLOAD ACTIVE UNKNOWN

§ Identity

Operator
Country
US
Launch date
2022-05-13
Launch site
AFWTR
Launch vehicle
Mass (kg)
RCS (m²)

Purposes: comms

External: N2YO · Heavens-Above · Gunter

§ Orbital elements

Epoch: 2026-09-19T19:08:41.911584Z

Period
93.85 min
Inclination
53.1609°
Eccentricity
0.0001265
Mean motion
15.34381889 rev/d
Perigee alt
461.9 km
Apogee alt
463.6 km
Semi-major
6,840.9 km
B*
3.1675e-5
RAAN
311.1711°
Arg perigee
79.7659°
Mean anomaly
280.3486°
Rev number
24,111

§ Raw data

STARLINK-39301 52568U 22051AM  26262.79770731  .00000693  00000+0  31675-4 0  99982 52568  53.1609 311.1711 0001265  79.7659 280.3486 15.34381889241114

JSON: /api/v1/satellites/52568 · /tle

For live sub-satellite position, see the globe view (requires WebGL).

§ Visibility from observer

Set your observer location to see the next 7 days of passes ≥ 10°. The values pass through the URL so the page stays shareable.

No JS? Fill the form by hand. The geolocation button needs JavaScript.